STARLINK-31913, 59667

Orbit data source: Space-Track

STARLINK-31913, 59667 is a payload satellite owned by SpaceX/Seattle (US) in LEO that was launched on Mon, 06 May 2024 UTC via an FALCON 9 launch vehicle from the Air Force Eastern Test Range (AFETR). Payload-class satellites include a variety of spacecraft equipped with specific instruments for various scientific and technological missions. These include communications satellites like Starlink; space stations such as the ISS; scientific satellites like the Hubble; Earth observation satellites from companies like Planet Labs, Umbra, and HawkEye 360; GPS; miniature CubeSats for education and research; and military/defense satellites.

Loading next visibility...
Identifier
59667, 2024-084P
Orbit
LEO
Country
Flag of USUS
Related business
Manufacturer
SpaceX/Seattle
Mission
Operational spacecraft
Bus & Motor
STARLINK V2M, Unknown motor
Mass
730 kg wet, ~700 kg dry
Launch date (UTC)
2024-05-06 (1 year ago)
Launch vehicle
FALCON 9
Launch site
Air Force Eastern Test Range (AFETR)
Object type
Payload
Rocket body
Debris
Shape & HBR
Unknown
Radar Cross Section
Large (>1 m²)

Expand to show TLE details & history
Last TLE update: 10 hours ago

TLE from 10 hours ago
0 STARLINK-31913
1 59667U 24084P   25242.16106538  .00000335  00000-0  21694-4 0  9993
2 59667  43.0049  39.7883 0001827 263.7102  96.3541 15.27581225 75123
Epoch: 2025-08-30T03:51Z
TLE epoch observation values (Epoch: 2025-08-30T03:51:56.048Z)
Latitude
-0.00008°
Longitude
3.20535°
Altitude
482.96 km
Speed
7.626 km/s
True Right ascension
02h 39m 09s
True Declination
0° 00' 00"
Sunlit
Object was in full shadow at epoch
Visualization orbit readout
Latitude
Unknown
Longitude
Unknown
Altitude
Unknown
Speed
Unknown
Apparent Right ascension
Unknown
Apparent Declination
Unknown
Sunlit
N/A
Visualization observer readout
Local Sidereal Time
05:20:34
Azimuth
Unknown
Elevation
Unknown
Doppler factor
Unknown
Orbital elements
Apogee altitude
486.244 km
Perigee altitude
483.736 km
Semi-major axis
6,863.127 km
Eccentricity
0.00018
Inclination
43.0049°
RAAN
39.7883°
Arg. of periapsis
263.7102°
True anomaly
96.37491°
Mean anomaly
96.3541°
Eccentric anomaly
96.3645°
Mean motion
3.81733 °/min
Orbital period
94.31 mins
BSTAR
0.000021694
Loading maneuver chart data...
Computing Atmospheric mass density...
Loading historical data...
Loading historical data...
Loading historical data...
Loading historical data...
Loading historical data...
Loading historical data...
Loading historical data...

Documentation

Showing up to 5 results
|